sat.trackr.live / text

‹ back to catalog

STARLINK-5332

NORAD 55285 · 2023-010S

PAYLOAD ACTIVE UNKNOWN

§ Identity

Operator
Country
US
Launch date
2023-01-19
Launch site
AFWTR
Launch vehicle
Mass (kg)
RCS (m²)

Purposes: comms

External: N2YO · Heavens-Above · Gunter

§ Orbital elements

Epoch: 2026-09-20T08:38:14.095104Z

Period
96.11 min
Inclination
69.9985°
Eccentricity
0.0002506
Mean motion
14.98319431 rev/d
Perigee alt
570.3 km
Apogee alt
573.8 km
Semi-major
6,950.2 km
B*
1.9286e-4
RAAN
233.5407°
Arg perigee
263.1479°
Mean anomaly
96.9395°
Rev number
20,380

§ Raw data

STARLINK-53321 55285U 23010S   26263.35988536  .00002208  00000+0  19286-3 0  99972 55285  69.9985 233.5407 0002506 263.1479  96.9395 14.98319431203809

JSON: /api/v1/satellites/55285 · /tle

For live sub-satellite position, see the globe view (requires WebGL).

§ Visibility from observer

Set your observer location to see the next 7 days of passes ≥ 10°. The values pass through the URL so the page stays shareable.

No JS? Fill the form by hand. The geolocation button needs JavaScript.